Terminal Aerodrome Forecast
Issued by NWS Brownsville, TX

Home | Current Version | Previous Version | Text Only | Print | Product List | Glossary On
Versions: 1 2 3 4 5 6 7 8 9 10 11 12 13 14 15
000
FTUS44 KBRO 042328
TAFBRO
TAF
KBRO 042328Z 0500/0524 13012KT P6SM SCT024 BKN150
     FM050300 13010KT P6SM BKN035
     FM050700 14011KT P6SM BKN025
     FM051200 15017G23KT P6SM OVC015
     FM051800 14017G23KT P6SM BKN025=

USA.gov is the U.S. government's official web portal to all federal, state and local government web resources and services.